Location: Mococo
(38.0255°N, 122.1161°W)
Time: 03:16:43
(UTC+00:00)

Cosmos 1400 Rocket - Pass Details

Date: 13 February 2026
Orbit: 474 x 509 km, 81.1° (Epoch: 7 March)

Event Time Altitude Azimuth Distance (km) Brightness Sun altitude
Rises 13:58:36 0° 198° (SSW) 2,590 6.1 -12.8°
Reaches altitude 10° 14:00:45 10° 203° (SSW) 1,715 5.2 -12.4°
Maximum altitude 14:04:26 53° 281° (W) 634 2.7 -11.6°
Drops below altitude 10° 14:08:11 10° 359° (N) 1,738 5.3 -10.9°
Sets 14:10:22 0° 4° (N) 2,630 6.2 -10.5°
